Location: *
(46.1200°N, 11.2700°E)
Time: 00:35:49
(UTC+00:00)

SPOT 3 Rocket - Pass Details

Date: 02 March 2021
Orbit: 778 x 795 km, 98.7° (Epoch: 18 April)

Event Time Altitude Azimuth Distance (km) Brightness Sun altitude
Exits shadow 19:09:02 39° 54° (NE) 1,171 4.1 -22.5°
Drops below altitude 10° 19:13:27 10° 359° (N) 2,373 6.2 -23.3°
Sets 19:15:54 0° 352° (N) 3,308 7.1 -23.7°
